Location: São Paulo
(23.5507°S, 46.6334°W)
Time: 13:29:02
(UTC-03:00)

Tiros 1 - Pass Details

Date: 16 February 2026
Orbit: 618 x 649 km, 48.4° (Epoch: 11 March)

Event Time Altitude Azimuth Distance (km) Brightness Sun altitude
Rises 19:58:30 0° 302° (WNW) 2,909 11.0 -16.7°
Reaches altitude 10° 20:00:52 10° 296° (WNW) 2,012 10.3 -17.2°
Maximum altitude 20:05:20 46° 222° (SW) 863 8.2 -18.2°
Drops below altitude 10° 20:09:52 10° 149° (SSE) 2,048 9.6 -19.1°
Sets 20:12:19 0° 142° (SE) 2,967 10.4 -19.7°
